THY7XE LTFM-LIPZ

Flight info

Callsign THY7XE
Flight time 1h 57m
Altitude 40000
Route VADEN N618 GOL DCT DOLAP DCT VEBAR DCT KOREX DCT LABIN Z122 BASOG
Aircraft A359/H-SDE2E3GHIJ3J4J5LM1ORWXY/LB1D1

Departure

Time 2026-05-07 09:35
Airport İstanbul Airport (LTFM)

Arrival

Time 2026-05-07 11:33
Airport Venice Marco Polo Airport (LIPZ)
Time Latitude Longitude Altitude Speed Heading
2026-05-07 08:58 41.26804 28.74370 313 ft 0 kts 272°
2026-05-07 09:24 41.26803 28.74371 340 ft 4 kts 271°
2026-05-07 09:24 41.26803 28.74380 340 ft 4 kts 269°
2026-05-07 09:24 41.26803 28.74389 336 ft 4 kts 268°
2026-05-07 09:25 41.26805 28.74424 337 ft 3 kts 268°
2026-05-07 09:25 41.26803 28.74453 336 ft 4 kts 303°
2026-05-07 09:25 41.26785 28.74468 335 ft 4 kts 359°
2026-05-07 09:25 41.26768 28.74468 336 ft 2 kts 359°
2026-05-07 09:26 41.26773 28.74468 335 ft 0 kts 359°
2026-05-07 09:29 41.26777 28.74467 335 ft 3 kts 359°
2026-05-07 09:29 41.26824 28.74466 335 ft 10 kts 359°
2026-05-07 09:30 41.26872 28.74484 336 ft 4 kts 49°
2026-05-07 09:30 41.26883 28.74543 336 ft 10 kts 86°
2026-05-07 09:30 41.26886 28.74666 336 ft 17 kts 89°
2026-05-07 09:30 41.26888 28.74836 340 ft 20 kts 89°
2026-05-07 09:31 41.26891 28.75027 340 ft 22 kts 89°
2026-05-07 09:31 41.26892 28.75096 340 ft 0 kts 88°
2026-05-07 09:31 41.26892 28.75101 340 ft 2 kts 89°
2026-05-07 09:31 41.26893 28.75132 340 ft 6 kts 89°
2026-05-07 09:32 41.26893 28.75210 340 ft 11 kts 89°
2026-05-07 09:32 41.26892 28.75329 340 ft 14 kts 99°
2026-05-07 09:32 41.26829 28.75378 336 ft 12 kts 175°
2026-05-07 09:32 41.26723 28.75381 335 ft 18 kts 179°
2026-05-07 09:33 41.26580 28.75384 338 ft 23 kts 179°
2026-05-07 09:33 41.26432 28.75387 336 ft 15 kts 179°
2026-05-07 09:33 41.26349 28.75403 335 ft 6 kts 140°
2026-05-07 09:33 41.26337 28.75454 336 ft 7 kts 98°
2026-05-07 09:34 41.26337 28.75547 338 ft 14 kts 89°
2026-05-07 09:34 41.26350 28.75650 337 ft 5 kts 47°
2026-05-07 09:34 41.26386 28.75662 336 ft 6 kts
2026-05-07 09:34 41.26471 28.75661 335 ft 35 kts 359°
2026-05-07 09:35 41.26987 28.75652 335 ft 110 kts 359°
2026-05-07 09:35 41.27968 28.75621 435 ft 164 kts 358°
2026-05-07 09:35 41.29144 28.75574 1101 ft 170 kts 356°
2026-05-07 09:35 41.30332 28.75713 1815 ft 181 kts 18°
2026-05-07 09:36 41.31472 28.76641 2055 ft 204 kts 39°
2026-05-07 09:36 41.32603 28.77927 2414 ft 224 kts 40°
2026-05-07 09:36 41.33930 28.79208 2692 ft 247 kts 31°
2026-05-07 09:36 41.35442 28.80391 3278 ft 255 kts 28°
2026-05-07 09:37 41.37051 28.81424 3907 ft 260 kts 16°
2026-05-07 09:37 41.38837 28.81754 4556 ft 261 kts 353°
2026-05-07 09:37 41.40528 28.80994 5235 ft 258 kts 324°
2026-05-07 09:37 41.41723 28.79249 5975 ft 256 kts 303°
2026-05-07 09:38 41.42626 28.77202 6708 ft 257 kts 299°
2026-05-07 09:38 41.43487 28.75102 7356 ft 260 kts 299°
2026-05-07 09:38 41.44362 28.72969 7985 ft 265 kts 299°
2026-05-07 09:38 41.45258 28.70806 8635 ft 268 kts 300°
2026-05-07 09:39 41.46170 28.68621 9296 ft 272 kts 300°
2026-05-07 09:39 41.47097 28.66408 9962 ft 275 kts 300°
2026-05-07 09:39 41.48046 28.64148 10393 ft 287 kts 301°
2026-05-07 09:39 41.49050 28.61760 10633 ft 303 kts 301°
2026-05-07 09:40 41.50106 28.59246 10885 ft 318 kts 300°
2026-05-07 09:40 41.51214 28.56607 11127 ft 333 kts 300°
2026-05-07 09:40 41.52360 28.53873 11460 ft 342 kts 300°
2026-05-07 09:40 41.53529 28.51081 11916 ft 347 kts 300°
2026-05-07 09:41 41.54711 28.48255 12443 ft 350 kts 300°
2026-05-07 09:41 41.55901 28.45408 12962 ft 353 kts 300°
2026-05-07 09:41 41.57100 28.42535 13447 ft 356 kts 300°
2026-05-07 09:41 41.58312 28.39632 13962 ft 359 kts 300°
2026-05-07 09:42 41.59515 28.36744 14406 ft 362 kts 300°
2026-05-07 09:42 41.60741 28.33802 14892 ft 364 kts 300°
2026-05-07 09:42 41.61971 28.30844 15388 ft 365 kts 300°
2026-05-07 09:42 41.63209 28.27868 15842 ft 367 kts 300°
2026-05-07 09:43 41.64451 28.24876 16326 ft 370 kts 300°
2026-05-07 09:43 41.65705 28.21852 16790 ft 372 kts 300°
2026-05-07 09:43 41.66962 28.18820 17277 ft 374 kts 300°
2026-05-07 09:43 41.68228 28.15761 17738 ft 377 kts 300°
2026-05-07 09:44 41.69500 28.12685 18214 ft 379 kts 300°
2026-05-07 09:44 41.70782 28.09583 18636 ft 382 kts 300°
2026-05-07 09:44 41.72066 28.06471 19055 ft 383 kts 300°
2026-05-07 09:44 41.73353 28.03347 19511 ft 383 kts 300°
2026-05-07 09:45 41.74640 28.00221 19962 ft 384 kts 300°
2026-05-07 09:45 41.75927 27.97090 20395 ft 385 kts 300°
2026-05-07 09:45 41.77218 27.93948 20841 ft 385 kts 300°
2026-05-07 09:45 41.78512 27.90795 21258 ft 387 kts 300°
2026-05-07 09:46 41.79808 27.87635 21655 ft 388 kts 300°
2026-05-07 09:46 41.81107 27.84464 22058 ft 389 kts 301°
2026-05-07 09:46 41.82410 27.81281 22459 ft 390 kts 300°
2026-05-07 09:46 41.83713 27.78093 22873 ft 391 kts 300°
2026-05-07 09:47 41.85020 27.74892 23256 ft 392 kts 300°
2026-05-07 09:47 41.86333 27.71674 23621 ft 394 kts 300°
2026-05-07 09:47 41.87649 27.68443 23910 ft 396 kts 300°
2026-05-07 09:47 41.88970 27.65196 24216 ft 397 kts 300°
2026-05-07 09:48 41.90297 27.61930 24525 ft 399 kts 300°
2026-05-07 09:48 41.91626 27.58657 24831 ft 400 kts 300°
2026-05-07 09:48 41.92960 27.55368 25144 ft 402 kts 300°
2026-05-07 09:48 41.94297 27.52067 25471 ft 403 kts 300°
2026-05-07 09:49 41.95640 27.48749 25797 ft 405 kts 300°
2026-05-07 09:49 41.96987 27.45414 26109 ft 407 kts 300°
2026-05-07 09:49 41.98338 27.42068 26458 ft 408 kts 300°
2026-05-07 09:49 41.99694 27.38707 26807 ft 410 kts 300°
2026-05-07 09:50 42.01056 27.35326 27171 ft 412 kts 300°
2026-05-07 09:50 42.02422 27.31929 27554 ft 414 kts 300°
2026-05-07 09:50 42.03792 27.28519 27965 ft 415 kts 300°
2026-05-07 09:50 42.05170 27.25092 28363 ft 417 kts 300°
2026-05-07 09:51 42.06682 27.21756 28746 ft 419 kts 306°
2026-05-07 09:51 42.08488 27.18668 29120 ft 421 kts 310°
2026-05-07 09:51 42.10409 27.15670 29492 ft 424 kts 312°
2026-05-07 09:51 42.12383 27.12708 29908 ft 426 kts 312°
2026-05-07 09:52 42.14386 27.09746 30326 ft 429 kts 313°
2026-05-07 09:52 42.16399 27.06770 30694 ft 431 kts 312°
2026-05-07 09:52 42.18419 27.03768 31074 ft 433 kts 312°
2026-05-07 09:52 42.20441 27.00744 31461 ft 435 kts 312°
2026-05-07 09:53 42.22465 26.97700 31819 ft 437 kts 312°
2026-05-07 09:53 42.24498 26.94632 32125 ft 440 kts 311°
2026-05-07 09:53 42.26543 26.91537 32447 ft 442 kts 311°
2026-05-07 09:53 42.28590 26.88433 32779 ft 444 kts 311°
2026-05-07 09:54 42.30653 26.85303 33105 ft 446 kts 311°
2026-05-07 09:54 42.32717 26.82169 33447 ft 448 kts 311°
2026-05-07 09:54 42.34790 26.79018 33774 ft 449 kts 311°
2026-05-07 09:54 42.36865 26.75861 34168 ft 448 kts 311°
2026-05-07 09:55 42.38932 26.72715 34548 ft 448 kts 311°
2026-05-07 09:55 42.41000 26.69563 34864 ft 448 kts 311°
2026-05-07 09:55 42.43043 26.66445 35215 ft 448 kts 311°
2026-05-07 09:55 42.45108 26.63291 35593 ft 447 kts 310°
2026-05-07 09:56 42.47169 26.60139 35965 ft 447 kts 310°
2026-05-07 09:56 42.49224 26.56993 36342 ft 446 kts 310°
2026-05-07 09:56 42.51274 26.53832 36687 ft 446 kts 309°
2026-05-07 09:56 42.53133 26.50485 37020 ft 445 kts 303°
2026-05-07 09:57 42.54677 26.46844 37238 ft 447 kts 295°
2026-05-07 09:57 42.55884 26.42963 37510 ft 447 kts 291°
2026-05-07 09:57 42.56962 26.39013 37865 ft 446 kts 289°
2026-05-07 09:57 42.57978 26.35046 38208 ft 445 kts 289°
2026-05-07 09:58 42.58968 26.31067 38536 ft 444 kts 288°
2026-05-07 09:58 42.59949 26.27095 38837 ft 444 kts 288°
2026-05-07 09:58 42.60930 26.23125 39069 ft 444 kts 288°
2026-05-07 09:58 42.61919 26.19149 39254 ft 444 kts 288°
2026-05-07 09:59 42.62914 26.15167 39383 ft 447 kts 288°
2026-05-07 09:59 42.63915 26.11173 39565 ft 448 kts 288°
2026-05-07 09:59 42.64920 26.07168 39771 ft 447 kts 288°
2026-05-07 09:59 42.65922 26.03172 39987 ft 447 kts 288°
2026-05-07 10:00 42.66927 25.99155 40080 ft 449 kts 288°
2026-05-07 10:00 42.68930 25.91132 40080 ft 448 kts 288°
2026-05-07 10:01 42.70915 25.83145 40079 ft 450 kts 288°
2026-05-07 10:01 42.72919 25.75056 40069 ft 452 kts 288°
2026-05-07 10:02 42.74918 25.66953 40061 ft 452 kts 288°
2026-05-07 10:02 42.76912 25.58847 40061 ft 452 kts 288°
2026-05-07 10:03 42.78905 25.50716 40054 ft 454 kts 288°
2026-05-07 10:03 42.80899 25.42550 40059 ft 455 kts 288°
2026-05-07 10:04 42.82887 25.34383 40060 ft 455 kts 288°
2026-05-07 10:04 42.84872 25.26195 40058 ft 455 kts 288°
2026-05-07 10:05 42.86516 25.19393 40055 ft 455 kts 288°
2026-05-07 10:05 42.88502 25.11150 40052 ft 455 kts 288°
2026-05-07 10:06 42.90457 25.03005 40058 ft 455 kts 288°
2026-05-07 10:06 42.92420 24.94799 40055 ft 455 kts 287°
2026-05-07 10:07 42.94378 24.86582 40056 ft 456 kts 287°
2026-05-07 10:07 42.96336 24.78336 40061 ft 457 kts 287°
2026-05-07 10:08 42.98289 24.70081 40059 ft 457 kts 287°
2026-05-07 10:08 43.00236 24.61821 40060 ft 457 kts 287°
2026-05-07 10:09 43.02180 24.53544 40058 ft 458 kts 287°
2026-05-07 10:09 43.04118 24.45259 40060 ft 458 kts 287°
2026-05-07 10:10 43.06052 24.36961 40062 ft 458 kts 287°
2026-05-07 10:10 43.07979 24.28662 40074 ft 458 kts 287°
2026-05-07 10:11 43.09901 24.20350 40063 ft 458 kts 286°
2026-05-07 10:11 43.11623 24.11958 40069 ft 458 kts 284°
2026-05-07 10:12 43.13232 24.03516 40070 ft 458 kts 283°
2026-05-07 10:12 43.14856 23.95087 40073 ft 458 kts 283°
2026-05-07 10:13 43.16499 23.86672 40071 ft 457 kts 283°
2026-05-07 10:13 43.18146 23.78256 40074 ft 457 kts 283°
2026-05-07 10:14 43.19786 23.69841 40079 ft 457 kts 283°
2026-05-07 10:14 43.21420 23.61417 40094 ft 457 kts 283°
2026-05-07 10:15 43.23045 23.52999 40085 ft 457 kts 283°
2026-05-07 10:15 43.24652 23.44632 40074 ft 456 kts 283°
2026-05-07 10:16 43.26275 23.36152 40088 ft 456 kts 283°
2026-05-07 10:16 43.27879 23.27727 40092 ft 457 kts 283°
2026-05-07 10:17 43.29479 23.19295 40099 ft 457 kts 283°
2026-05-07 10:17 43.31061 23.10911 40102 ft 457 kts 283°
2026-05-07 10:18 43.32649 23.02468 40103 ft 457 kts 283°
2026-05-07 10:18 43.34229 22.94025 40110 ft 457 kts 283°
2026-05-07 10:19 43.35805 22.85571 40110 ft 457 kts 282°
2026-05-07 10:19 43.37374 22.77110 40098 ft 457 kts 283°
2026-05-07 10:20 43.39139 22.68708 40102 ft 458 kts 286°
2026-05-07 10:20 43.41128 22.60395 40108 ft 458 kts 286°
2026-05-07 10:21 43.43102 22.52062 40108 ft 458 kts 285°
2026-05-07 10:21 43.45026 22.43709 40108 ft 458 kts 285°
2026-05-07 10:22 43.46925 22.35344 40110 ft 458 kts 285°
2026-05-07 10:22 43.48815 22.26973 40121 ft 458 kts 285°
2026-05-07 10:23 43.50700 22.18606 40119 ft 457 kts 285°
2026-05-07 10:23 43.52580 22.10227 40122 ft 458 kts 285°
2026-05-07 10:24 43.54453 22.01853 40119 ft 457 kts 285°
2026-05-07 10:24 43.56321 21.93470 40120 ft 457 kts 285°
2026-05-07 10:25 43.58169 21.85141 40118 ft 457 kts 284°
2026-05-07 10:25 43.60024 21.76750 40109 ft 457 kts 284°
2026-05-07 10:26 43.61871 21.68358 40110 ft 457 kts 284°
2026-05-07 10:26 43.63714 21.59956 40101 ft 457 kts 284°
2026-05-07 10:27 43.65551 21.51544 40099 ft 458 kts 284°
2026-05-07 10:27 43.67383 21.43126 40091 ft 458 kts 284°
2026-05-07 10:28 43.69208 21.34702 40081 ft 458 kts 284°
2026-05-07 10:28 43.71028 21.26272 40087 ft 458 kts 284°
2026-05-07 10:29 43.72844 21.17820 40080 ft 459 kts 284°
2026-05-07 10:29 43.74658 21.09350 40076 ft 459 kts 284°
2026-05-07 10:30 43.77365 20.96637 40078 ft 460 kts 284°
2026-05-07 10:30 43.79165 20.88145 40075 ft 460 kts 283°
2026-05-07 10:31 43.80958 20.79649 40072 ft 460 kts 283°
2026-05-07 10:31 43.82745 20.71145 40071 ft 460 kts 283°
2026-05-07 10:32 43.84525 20.62640 40069 ft 460 kts 283°
2026-05-07 10:32 43.86300 20.54128 40075 ft 460 kts 283°
2026-05-07 10:33 43.88059 20.45652 40074 ft 461 kts 283°
2026-05-07 10:33 43.89824 20.37117 40071 ft 461 kts 283°
2026-05-07 10:34 43.91582 20.28575 40070 ft 461 kts 283°
2026-05-07 10:34 43.93335 20.20025 40068 ft 461 kts 283°
2026-05-07 10:35 43.95083 20.11469 40064 ft 461 kts 283°
2026-05-07 10:35 43.96821 20.02912 40063 ft 461 kts 283°
2026-05-07 10:36 43.98553 19.94354 40064 ft 461 kts 283°
2026-05-07 10:36 44.00280 19.85788 40064 ft 460 kts 283°
2026-05-07 10:37 44.01996 19.77234 40062 ft 460 kts 282°
2026-05-07 10:37 44.03707 19.68675 40062 ft 460 kts 282°
2026-05-07 10:38 44.05410 19.60113 40060 ft 460 kts 282°
2026-05-07 10:38 44.07107 19.51541 40051 ft 460 kts 282°
2026-05-07 10:39 44.08802 19.42945 40056 ft 460 kts 282°
2026-05-07 10:39 44.10488 19.34359 40063 ft 460 kts 282°
2026-05-07 10:40 44.12168 19.25770 40056 ft 460 kts 282°
2026-05-07 10:40 44.13843 19.17166 40055 ft 460 kts 282°
2026-05-07 10:41 44.15563 19.08572 40056 ft 461 kts 283°
2026-05-07 10:41 44.17309 18.99987 40060 ft 461 kts 283°
2026-05-07 10:42 44.19045 18.91395 40053 ft 461 kts 283°
2026-05-07 10:42 44.20767 18.82791 40060 ft 461 kts 282°
2026-05-07 10:43 44.22482 18.74172 40059 ft 462 kts 282°
2026-05-07 10:43 44.24192 18.65536 40058 ft 462 kts 282°
2026-05-07 10:44 44.25895 18.56908 40051 ft 462 kts 282°
2026-05-07 10:44 44.27593 18.48267 40063 ft 462 kts 282°
2026-05-07 10:45 44.29280 18.39635 40052 ft 461 kts 282°
2026-05-07 10:45 44.30964 18.30991 40059 ft 461 kts 282°
2026-05-07 10:46 44.32638 18.22353 40053 ft 461 kts 282°
2026-05-07 10:46 44.34306 18.13706 40059 ft 462 kts 282°
2026-05-07 10:47 44.35971 18.05038 40059 ft 462 kts 282°
2026-05-07 10:47 44.37630 17.96359 40057 ft 462 kts 282°
2026-05-07 10:48 44.39281 17.87691 40058 ft 462 kts 282°
2026-05-07 10:48 44.40927 17.79004 40056 ft 462 kts 281°
2026-05-07 10:49 44.42564 17.70319 40050 ft 462 kts 281°
2026-05-07 10:49 44.43931 17.63042 40054 ft 462 kts 281°
2026-05-07 10:50 44.45559 17.54340 40053 ft 462 kts 281°
2026-05-07 10:50 44.47178 17.45650 40056 ft 461 kts 281°
2026-05-07 10:51 44.48786 17.36977 40050 ft 460 kts 281°
2026-05-07 10:51 44.50386 17.28303 40047 ft 460 kts 281°
2026-05-07 10:52 44.51979 17.19624 40047 ft 460 kts 281°
2026-05-07 10:52 44.53565 17.10945 40046 ft 459 kts 281°
2026-05-07 10:53 44.55142 17.02274 40038 ft 459 kts 281°
2026-05-07 10:53 44.56711 16.93602 40039 ft 459 kts 281°
2026-05-07 10:54 44.58275 16.84922 40039 ft 459 kts 280°
2026-05-07 10:54 44.59821 16.76306 40045 ft 458 kts 280°
2026-05-07 10:55 44.61364 16.67662 40039 ft 456 kts 280°
2026-05-07 10:55 44.62898 16.59029 40038 ft 456 kts 280°
2026-05-07 10:56 44.64424 16.50392 40044 ft 455 kts 280°
2026-05-07 10:56 44.65943 16.41761 40053 ft 455 kts 280°
2026-05-07 10:57 44.67453 16.33138 40045 ft 455 kts 280°
2026-05-07 10:57 44.68958 16.24502 40049 ft 455 kts 280°
2026-05-07 10:58 44.70456 16.15863 40046 ft 455 kts 280°
2026-05-07 10:58 44.71946 16.07230 40050 ft 455 kts 280°
2026-05-07 10:59 44.73431 15.98591 40032 ft 454 kts 279°
2026-05-07 10:59 44.74906 15.89954 40046 ft 454 kts 279°
2026-05-07 11:00 44.76374 15.81317 40047 ft 454 kts 279°
2026-05-07 11:00 44.77509 15.72606 40072 ft 452 kts 275°
2026-05-07 11:01 44.78346 15.63854 40031 ft 450 kts 274°
2026-05-07 11:01 44.79123 15.55106 40031 ft 450 kts 274°
2026-05-07 11:02 44.79895 15.46361 40026 ft 450 kts 274°
2026-05-07 11:02 44.80665 15.37681 40029 ft 450 kts 274°
2026-05-07 11:03 44.81439 15.28921 40025 ft 450 kts 274°
2026-05-07 11:03 44.82204 15.20178 40030 ft 450 kts 274°
2026-05-07 11:04 44.82963 15.11429 40027 ft 450 kts 274°
2026-05-07 11:04 44.83715 15.02676 40029 ft 450 kts 274°
2026-05-07 11:05 44.84460 14.93931 40028 ft 450 kts 274°
2026-05-07 11:05 44.85199 14.85176 40028 ft 450 kts 273°
2026-05-07 11:06 44.85930 14.76424 40028 ft 450 kts 273°
2026-05-07 11:06 44.86654 14.67672 40028 ft 450 kts 273°
2026-05-07 11:07 44.87371 14.58915 40039 ft 450 kts 273°
2026-05-07 11:07 44.88079 14.50202 40031 ft 450 kts 273°
2026-05-07 11:08 44.88789 14.41367 40022 ft 450 kts 273°
2026-05-07 11:08 44.89483 14.32651 40023 ft 450 kts 273°
2026-05-07 11:09 44.90180 14.23812 40029 ft 450 kts 273°
2026-05-07 11:09 44.90859 14.15131 39536 ft 445 kts 273°
2026-05-07 11:10 44.91197 14.10773 38769 ft 447 kts 272°
2026-05-07 11:10 44.91531 14.06445 37568 ft 441 kts 272°
2026-05-07 11:10 44.91860 14.02207 36836 ft 427 kts 272°
2026-05-07 11:10 44.92179 13.98101 36172 ft 416 kts 271°
2026-05-07 11:11 44.92488 13.94051 35493 ft 415 kts 271°
2026-05-07 11:11 44.92792 13.90011 34757 ft 414 kts 270°
2026-05-07 11:11 44.93092 13.85973 33949 ft 413 kts 270°
2026-05-07 11:11 44.93391 13.81951 33079 ft 413 kts 270°
2026-05-07 11:12 44.93689 13.77875 32230 ft 420 kts 270°
2026-05-07 11:12 44.93990 13.73765 31378 ft 422 kts 270°
2026-05-07 11:12 44.94293 13.69633 30488 ft 425 kts 270°
2026-05-07 11:12 44.94598 13.65483 29784 ft 423 kts 270°
2026-05-07 11:13 44.94902 13.61373 29140 ft 418 kts 270°
2026-05-07 11:13 44.95202 13.57312 28520 ft 413 kts 270°
2026-05-07 11:13 44.95495 13.53289 27901 ft 410 kts 270°
2026-05-07 11:13 44.95783 13.49299 27275 ft 407 kts 270°
2026-05-07 11:14 44.96067 13.45339 26687 ft 404 kts 270°
2026-05-07 11:14 44.96346 13.41415 26063 ft 400 kts 270°
2026-05-07 11:14 44.96622 13.37523 25460 ft 397 kts 270°
2026-05-07 11:14 44.96894 13.33665 24858 ft 393 kts 270°
2026-05-07 11:15 44.97162 13.29841 24263 ft 390 kts 270°
2026-05-07 11:15 44.97428 13.26038 23667 ft 387 kts 270°
2026-05-07 11:15 44.97689 13.22268 22991 ft 384 kts 270°
2026-05-07 11:15 44.97948 13.18535 22385 ft 380 kts 271°
2026-05-07 11:16 44.98202 13.14838 21786 ft 377 kts 271°
2026-05-07 11:16 44.98486 13.11162 21178 ft 378 kts 274°
2026-05-07 11:16 44.99100 13.07545 20656 ft 380 kts 282°
2026-05-07 11:16 44.99906 13.03998 20048 ft 378 kts 284°
2026-05-07 11:17 45.00751 13.00493 19423 ft 376 kts 284°
2026-05-07 11:17 45.01602 12.97017 18783 ft 373 kts 285°
2026-05-07 11:17 45.02451 12.93562 18114 ft 371 kts 285°
2026-05-07 11:17 45.03295 12.90128 17430 ft 368 kts 286°
2026-05-07 11:18 45.04134 12.86718 16790 ft 365 kts 286°
2026-05-07 11:18 45.04962 12.83347 16166 ft 362 kts 286°
2026-05-07 11:18 45.05784 12.79996 15510 ft 360 kts 287°
2026-05-07 11:18 45.06601 12.76661 14873 ft 358 kts 287°
2026-05-07 11:19 45.07413 12.73343 14245 ft 356 kts 287°
2026-05-07 11:19 45.08220 12.70041 13578 ft 354 kts 287°
2026-05-07 11:19 45.09023 12.66754 12917 ft 351 kts 287°
2026-05-07 11:19 45.09815 12.63505 12289 ft 347 kts 287°
2026-05-07 11:20 45.10598 12.60290 11655 ft 344 kts 287°
2026-05-07 11:20 45.11370 12.57114 11229 ft 335 kts 287°
2026-05-07 11:20 45.12111 12.54071 11088 ft 319 kts 287°
2026-05-07 11:20 45.12713 12.51142 10955 ft 301 kts 278°
2026-05-07 11:21 45.12761 12.48283 10817 ft 283 kts 261°
2026-05-07 11:21 45.12250 12.45671 10687 ft 269 kts 249°
2026-05-07 11:21 45.11577 12.43267 10555 ft 257 kts 247°
2026-05-07 11:21 45.10901 12.40961 10435 ft 253 kts 247°
2026-05-07 11:22 45.10230 12.38662 10311 ft 252 kts 247°
2026-05-07 11:22 45.09567 12.36372 10106 ft 251 kts 247°
2026-05-07 11:22 45.08906 12.34077 9814 ft 257 kts 247°
2026-05-07 11:22 45.08222 12.31663 9670 ft 268 kts 249°
2026-05-07 11:23 45.07821 12.29097 9284 ft 269 kts 266°
2026-05-07 11:23 45.08183 12.26495 8777 ft 274 kts 292°
2026-05-07 11:23 45.09337 12.24340 8400 ft 280 kts 317°
2026-05-07 11:23 45.11068 12.23071 8037 ft 284 kts 340°
2026-05-07 11:24 45.12992 12.22419 7665 ft 284 kts 346°
2026-05-07 11:24 45.14912 12.21782 7289 ft 282 kts 339°
2026-05-07 11:24 45.16601 12.20450 6932 ft 277 kts 321°
2026-05-07 11:24 45.18068 12.18706 6569 ft 275 kts 316°
2026-05-07 11:25 45.19481 12.16892 6201 ft 273 kts 316°
2026-05-07 11:25 45.20879 12.15085 5845 ft 272 kts 316°
2026-05-07 11:25 45.22275 12.13286 5478 ft 270 kts 316°
2026-05-07 11:25 45.23640 12.11530 5141 ft 268 kts 314°
2026-05-07 11:26 45.25016 12.09747 4797 ft 267 kts 316°
2026-05-07 11:26 45.26540 12.08266 4451 ft 268 kts 336°
2026-05-07 11:26 45.28331 12.07925 4320 ft 257 kts
2026-05-07 11:26 45.29942 12.08856 4202 ft 248 kts 33°
2026-05-07 11:27 45.31249 12.10376 4087 ft 238 kts 41°
2026-05-07 11:27 45.32442 12.11934 3941 ft 228 kts 42°
2026-05-07 11:27 45.33581 12.13430 3825 ft 219 kts 41°
2026-05-07 11:27 45.34681 12.14864 3699 ft 210 kts 41°
2026-05-07 11:28 45.35734 12.16230 3617 ft 198 kts 41°
2026-05-07 11:28 45.36719 12.17502 3536 ft 185 kts 40°
2026-05-07 11:28 45.37640 12.18688 3416 ft 173 kts 40°
2026-05-07 11:28 45.38518 12.19811 3226 ft 167 kts 40°
2026-05-07 11:29 45.39364 12.20893 3119 ft 159 kts 40°
2026-05-07 11:29 45.40167 12.21922 3004 ft 153 kts 40°
2026-05-07 11:29 45.40949 12.22923 2935 ft 149 kts 40°
2026-05-07 11:29 45.41736 12.23930 2576 ft 158 kts 40°
2026-05-07 11:30 45.42584 12.25019 2213 ft 167 kts 40°
2026-05-07 11:30 45.43437 12.26110 1903 ft 162 kts 39°
2026-05-07 11:30 45.44276 12.27169 1577 ft 160 kts 41°
2026-05-07 11:30 45.45096 12.28201 1272 ft 155 kts 39°
2026-05-07 11:31 45.45898 12.29218 992 ft 153 kts 41°
2026-05-07 11:31 45.46686 12.30213 748 ft 148 kts 40°
2026-05-07 11:31 45.47437 12.31183 550 ft 143 kts 44°
2026-05-07 11:31 45.48162 12.32136 366 ft 141 kts 45°
2026-05-07 11:32 45.49614 12.34020 52 ft 142 kts 44°
2026-05-07 11:32 45.50319 12.34931 25 ft 130 kts 44°
2026-05-07 11:32 45.50857 12.35630 25 ft 67 kts 42°
2026-05-07 11:33 45.51053 12.35883 25 ft 31 kts 42°
2026-05-07 11:33 45.51204 12.36061 24 ft 21 kts 18°
2026-05-07 11:33 45.51297 12.35996 24 ft 12 kts 312°
2026-05-07 11:33 45.51322 12.35898 26 ft 9 kts 246°
2026-05-07 11:34 45.51274 12.35818 24 ft 12 kts 222°
2026-05-07 11:34 45.51201 12.35728 24 ft 14 kts 222°
2026-05-07 11:34 45.51123 12.35623 26 ft 17 kts 223°
2026-05-07 11:34 45.51030 12.35501 27 ft 19 kts 224°
2026-05-07 11:35 45.50935 12.35371 28 ft 20 kts 223°
2026-05-07 11:35 45.50822 12.35236 26 ft 22 kts 221°
2026-05-07 11:35 45.50698 12.35079 24 ft 26 kts 222°
2026-05-07 11:35 45.50614 12.34971 23 ft 20 kts 222°
2026-05-07 11:36 45.50506 12.34829 24 ft 22 kts 225°
2026-05-07 11:36 45.50468 12.34780 24 ft 0 kts 223°
2026-05-07 11:36 45.50455 12.34763 25 ft 6 kts 223°
2026-05-07 11:37 45.50428 12.34728 27 ft 0 kts 222°
2026-05-07 11:37 45.50426 12.34718 25 ft 2 kts 246°
2026-05-07 11:37 45.50430 12.34683 25 ft 7 kts 285°
2026-05-07 11:38 45.50461 12.34595 24 ft 10 kts 273°
2026-05-07 11:38 45.50415 12.34510 25 ft 13 kts 220°
2026-05-07 11:38 45.50343 12.34417 26 ft 15 kts 227°
2026-05-07 11:38 45.50333 12.34303 24 ft 12 kts 287°
2026-05-07 11:39 45.50354 12.34214 24 ft 8 kts 290°
2026-05-07 11:39 45.50361 12.34186 26 ft 0 kts 290°